This demonstration page uses our WeatherBlox Daily Observations layout. Learn more.

Left ArrowRight Arrow

34.74481, -87.66753

Hourly Observations for April 7, 2015

Temp ( °F °C ) Dew Point ( °F °C ) Humidity (%) Winds ( mph kmh ) Pressure ( in mb ) Visibility ( mi km ) Precip ( " mm )
12:37 am 00:37 Cloudy 66 18.9 63 17.2 90 90 SE 5 7 30.06 1018 8 13 0.00 0.00
12:53 am 00:53 Cloudy 66 18.9 63 17.2 90 90 SE 6 9 30.08 1019 7 11 0.00 0.00
1:17 am 01:17 Cloudy 67 19.4 64 17.8 91 91 S 6 9 30.06 1018 8 13 0.00 0.00
1:50 am 01:50 Cloudy 68 20 64 18 88 88 SSW 8 13 30.06 1018 9 14 0.00 0.00
1:53 am 01:53 Cloudy 68 20 64 17.8 87 87 SSW 8 13 30.08 1019 9 14 0.00 0.00
2:33 am 02:33 Cloudy 68 20 64 17.8 87 87 S 6 9 30.06 1018 9 14 0.00 0.00
2:42 am 02:42 Cloudy 68 20 64 17.8 87 87 S 7 11 30.06 1018 10 16 0.00 0.00
2:53 am 02:53 Cloudy 68 20 64 17.8 87 87 S 6 9 30.07 1018 10 16 0.00 0.00
3:19 am 03:19 Cloudy 68 20 64 17.8 87 87 SSE 6 9 30.06 1018 10 16 0.00 0.00
3:53 am 03:53 Mostly Cloudy 68 20 63 17.2 84 84 S 6 9 30.06 1018 10 16 0.00 0.00
4:53 am 04:53 Cloudy 67 19.4 63 17.2 87 87 S 6 9 30.07 1018 10 16 0.00 0.00
5:17 am 05:17 Cloudy 67 19.4 63 17.2 87 87 S 5 7 30.06 1018 10 16 0.00 0.00
5:53 am 05:53 Cloudy 66 18.9 63 17.2 90 90 SSE 3 6 30.10 1019 9 14 0.00 0.00
6:48 am 06:48 Cloudy 66 19 63 17 88 88 S 3 6 30.09 1019 7 11 0.00 0.00
6:53 am 06:53 Cloudy 67 19.4 63 17.2 87 87 S 3 6 30.11 1020 7 11 0.00 0.00
7:53 am 07:53 Cloudy 67 19.4 63 17.2 87 87 SSW 5 7 30.14 1021 7 11 0.00 0.00
8:28 am 08:28 Cloudy with Mist and Fog 68 20 64 17.8 87 87 SSW 5 7 30.12 1020 6 10 0.00 0.00
8:53 am 08:53 Cloudy with Mist and Fog 68 20 64 17.8 87 87 SSW 7 11 30.15 1021 4 6 0.00 0.00
9:20 am 09:20 Cloudy with Mist and Fog 69 20.6 65 18.3 87 87 S 6 9 30.12 1020 5 8 0.00 0.00
9:38 am 09:38 Partly Cloudy with Mist and Fog 69 20.6 65 18.3 87 87 S 7 11 30.12 1020 6 10 0.00 0.00
9:53 am 09:53 Sunny 71 21.7 66 18.9 84 84 S 8 13 30.12 1020 7 11 0.00 0.00
10:53 am 10:53 Sunny 74 23.3 65 18.3 74 74 S 16 26 30.09 1019 10 16 0.00 0.00
11:32 am 11:32 Mostly Cloudy 73 22.8 65 18.3 76 76 S 12 19 30.09 1019 10 16 0.00 0.00
11:49 am 11:49 Partly Cloudy 73 23 64 18 74 74 SSW 10 17 30.09 1019 10 16 0.00 0.00
11:53 am 11:53 Mostly Cloudy 74 23.3 64 17.8 71 71 SSW 9 15 30.09 1019 10 16 0.00 0.00
12:06 pm 12:06 Partly Cloudy 74 23.3 64 17.8 71 71 S 10 17 30.06 1018 10 16 0.00 0.00
12:20 pm 12:20 Mostly Cloudy 75 23.9 65 18.3 71 71 SSW 12 19 30.06 1018 10 16 0.00 0.00
12:53 pm 12:53 Mostly Cloudy 76 24.4 65 18.3 69 69 SW 14 22 30.10 1019 10 16 0.00 0.00
1:01 pm 13:01 Mostly Cloudy 76 24.4 64 17.8 67 67 SW 13 20 30.09 1019 10 16 0.00 0.00
1:53 pm 13:53 Partly Cloudy 73 22.8 64 17.8 74 74 WSW 8 13 30.09 1019 10 16 0.00 0.00
2:53 pm 14:53 Partly Cloudy 75 23.9 64 17.8 69 69 SSW 5 7 30.06 1018 10 16 0.00 0.00
3:53 pm 15:53 Sunny 74 23.3 64 17.8 71 71 WSW 6 9 30.06 1018 10 16 0.00 0.00
4:53 pm 16:53 Sunny 73 22.8 63 17.2 71 71 WSW 5 7 30.07 1018 10 16 0.00 0.00
5:53 pm 17:53 Sunny 76 24.4 63 17.2 64 64 S 5 7 30.06 1018 10 16 0.00 0.00
6:53 pm 18:53 Sunny 72 22.2 62 16.7 71 71 WSW 8 13 30.09 1019 10 16 0.00 0.00
7:53 pm 19:53 Partly Cloudy 70 21.1 62 16.7 76 76 S 5 7 30.09 1019 10 16 0.00 0.00
8:53 pm 20:53 Clear 68 20 62 16.7 81 81 S 6 9 30.09 1019 10 16 0.00 0.00
9:53 pm 21:53 Clear 67 19.4 62 16.7 84 84 S 5 7 30.09 1019 10 16 0.00 0.00
10:53 pm 22:53 Clear 67 19.4 63 17.2 87 87 S 6 9 30.08 1019 9 14 0.00 0.00
11:53 pm 23:53 Clear 67 19.4 63 17.2 87 87 S 5 7 30.07 1018 8 13 0.00 0.00

Powered by AerisWeather